QPF
0.00 0.00 0.00 0.00 0.00 0.00 0.01 0.01 0.01 0.01 0.01 0.01 0.01 0.01 0.01 0.01 0.02 0.01 0.01 0.00 0.00 0.00 0.00 0.00 0.01 0.00 0.00 0.00 0.01 0.01 0.02 0.03 0.03 0.03 0.02 0.03 0.04 0.05 0.04 0.03 0.04 0.05 0.10 0.11
0.00 0.00 0.00 0.00 0.00 0.00 0.00 0.00 0.01 0.01 0.01 0.01 0.01 0.02 0.01 0.01 0.01 0.01 0.01 0.01 0.00 0.00 0.00 0.00 0.00 0.00 0.00 0.00 0.00 0.01 0.01 0.01 0.02 0.02 0.01 0.02 0.04 0.05 0.04 0.03 0.03 0.04 0.05 0.06
0.00 0.00 0.00 0.00 0.00 0.00 0.00 0.00 0.01 0.01 0.01 0.01 0.02 0.02 0.01 0.01 0.01 0.01 0.01 0.02 0.01 0.01 0.00 0.01 0.00 0.00 0.00 0.00 0.00 0.00 0.00 0.01 0.01 0.01 0.01 0.02 0.03 0.03 0.02 0.03 0.03 0.03 0.03 0.03
0.00 0.00 0.00 0.00 0.00 0.00 0.00 0.00 0.00 0.01 0.02 0.01 0.01 0.01 0.01 0.02 0.04 0.04 0.05 0.04 0.02 0.02 0.02 0.01 0.01 0.00 0.01 0.00 0.01 0.01 0.01 0.02 0.03 0.02 0.01 0.01 0.02 0.02 0.02 0.02 0.02 0.02 0.03 0.02
0.00 0.00 0.00 0.00 0.00 0.00 0.00 0.00 0.00 0.01 0.03 0.03 0.01 0.02 0.02 0.02 0.05 0.05 0.04 0.03 0.02 0.02 0.02 0.01 0.01 0.01 0.00 0.01 0.01 0.01 0.02 0.02 0.02 0.01 0.01 0.01 0.01 0.01 0.01 0.01 0.01 0.01 0.02 0.02
0.00 0.00 0.00 0.00 0.00 0.00 0.00 0.01 0.01 0.02 0.04 0.05 0.02 0.02 0.02 0.02 0.02 0.04 0.03 0.02 0.02 0.01 0.01 0.01 0.01 0.00 0.00 0.01 0.01 0.01 0.01 0.02 0.02 0.02 0.01 0.01 0.01 0.01 0.02 0.02 0.02 0.02 0.02 0.02
0.00 0.00 0.00 0.00 0.00 0.00 0.00 0.01 0.02 0.03 0.03 0.04 0.02 0.03 0.02 0.01 0.01 0.02 0.02 0.02 0.02 0.01 0.01 0.01 0.01 0.00 0.01 0.02 0.02 0.02 0.02 0.01 0.01 0.01 0.01 0.01 0.02 0.02 0.02 0.02 0.02 0.02 0.02 0.02
0.00 0.00 0.00 0.00 0.00 0.00 0.00 0.00 0.01 0.01 0.02 0.03 0.02 0.03 0.03 0.02 0.01 0.01 0.01 0.02 0.01 0.01 0.01 0.00 0.00 0.01 0.07 0.08 0.04 0.04 0.04 0.01 0.01 0.01 0.02 0.02 0.03 0.03 0.03 0.03 0.03 0.04 0.03 0.03
0.00 0.00 0.00 0.00 0.00 0.00 0.00 0.00 0.00 0.00 0.01 0.01 0.03 0.05 0.04 0.03 0.02 0.02 0.02 0.02 0.02 0.01 0.00 0.01 0.01 0.05 0.07 0.04 0.02 0.02 0.02 0.01 0.02 0.03 0.03 0.04 0.04 0.04 0.04 0.04 0.05 0.04 0.03 0.02
0.00 0.00 0.00 0.00 0.00 0.00 0.00 0.00 0.00 0.01 0.02 0.02 0.02 0.04 0.03 0.04 0.05 0.04 0.04 0.03 0.03 0.02 0.01 0.02 0.02 0.06 0.07 0.03 0.01 0.01 0.01 0.03 0.04 0.04 0.04 0.07 0.05 0.05 0.03 0.03 0.02 0.02 0.01 0.01
0.00 0.00 0.00 0.00 0.00 0.00 0.00 0.01 0.01 0.01 0.01 0.03 0.02 0.02 0.03 0.04 0.06 0.09 0.05 0.03 0.02 0.02 0.02 0.02 0.02 0.02 0.02 0.02 0.03 0.04 0.03 0.04 0.04 0.03 0.03 0.05 0.05 0.06 0.03 0.02 0.02 0.02 0.01 0.01
0.00 0.00 0.00 0.00 0.00 0.00 0.00 0.00 0.00 0.02 0.01 0.01 0.01 0.01 0.02 0.03 0.04 0.07 0.05 0.03 0.02 0.01 0.01 0.01 0.01 0.02 0.02 0.03 0.06 0.09 0.09 0.04 0.02 0.02 0.02 0.02 0.02 0.02 0.02 0.02 0.02 0.02 0.02 0.02
0.00 0.00 0.00 0.00 0.00 0.00 0.00 0.00 0.00 0.01 0.01 0.01 0.02 0.02 0.02 0.04 0.04 0.03 0.03 0.03 0.03 0.02 0.01 0.01 0.01 0.01 0.02 0.02 0.03 0.06 0.06 0.02 0.01 0.02 0.02 0.03 0.02 0.02 0.02 0.01 0.02 0.03 0.03 0.02
0.00 0.00 0.00 0.00 0.00 0.00 0.00 0.00 0.00 0.00 0.00 0.01 0.02 0.03 0.03 0.02 0.02 0.03 0.02 0.02 0.03 0.03 0.02 0.02 0.01 0.01 0.01 0.01 0.01 0.02 0.01 0.00 0.00 0.01 0.01 0.02 0.02 0.01 0.02 0.02 0.02 0.04 0.03 0.02
0.00 0.00 0.00 0.00 0.00 0.00 0.00 0.00 0.00 0.00 0.00 0.00 0.01 0.03 0.03 0.03 0.02 0.02 0.03 0.04 0.04 0.03 0.03 0.02 0.01 0.01 0.01 0.00 0.00 0.00 0.00 0.00 0.00 0.01 0.01 0.02 0.02 0.01 0.01 0.01 0.01 0.01 0.01 0.01
0.00 0.00 0.00 0.00 0.00 0.00 0.00 0.00 0.00 0.01 0.00 0.00 0.02 0.04 0.02 0.01 0.01 0.01 0.03 0.04 0.03 0.03 0.06 0.06 0.03 0.02 0.01 0.00 0.00 0.00 0.00 0.00 0.01 0.01 0.01 0.01 0.01 0.01 0.01 0.02 0.02 0.01 0.01 0.02
0.00 0.00 0.00 0.00 0.01 0.01 0.00 0.00 0.01 0.01 0.01 0.01 0.04 0.04 0.01 0.01 0.01 0.02 0.05 0.09 0.08 0.07 0.07 0.08 0.05 0.03 0.01 0.01 0.00 0.00 0.01 0.01 0.01 0.01 0.01 0.01 0.02 0.02 0.02 0.02 0.02 0.02 0.02 0.03
0.01 0.01 0.01 0.01 0.01 0.01 0.01 0.01 0.03 0.03 0.01 0.01 0.02 0.03 0.01 0.01 0.02 0.03 0.05 0.06 0.09 0.10 0.08 0.07 0.06 0.04 0.02 0.02 0.01 0.01 0.02 0.02 0.02 0.02 0.03 0.02 0.03 0.03 0.03 0.03 0.03 0.03 0.04 0.04
0.00 0.00 0.01 0.01 0.02 0.01 0.01 0.02 0.04 0.05 0.03 0.02 0.02 0.01 0.01 0.02 0.02 0.04 0.07 0.07 0.05 0.05 0.05 0.05 0.06 0.06 0.04 0.03 0.03 0.03 0.04 0.04 0.04 0.04 0.04 0.05 0.05 0.06 0.07 0.07 0.07 0.07 0.06 0.06
0.00 0.00 0.01 0.01 0.01 0.01 0.01 0.03 0.06 0.07 0.07 0.04 0.03 0.02 0.02 0.02 0.02 0.03 0.05 0.08 0.09 0.07 0.08 0.07 0.06 0.06 0.06 0.05 0.04 0.05 0.05 0.05 0.04 0.04 0.04 0.05 0.06 0.06 0.07 0.10 0.12 0.14 0.15 0.12
0.00 0.01 0.01 0.01 0.01 0.01 0.01 0.03 0.08 0.09 0.10 0.09 0.07 0.04 0.03 0.02 0.01 0.01 0.02 0.06 0.08 0.07 0.07 0.07 0.07 0.06 0.06 0.06 0.07 0.07 0.07 0.07 0.06 0.05 0.05 0.06 0.06 0.07 0.07 0.08 0.12 0.15 0.15 0.13
0.01 0.01 0.01 0.01 0.01 0.02 0.02 0.03 0.05 0.08 0.06 0.08 0.14 0.09 0.04 0.02 0.02 0.02 0.01 0.04 0.08 0.06 0.06 0.07 0.08 0.09 0.08 0.09 0.10 0.09 0.08 0.06 0.05 0.05 0.05 0.04 0.04 0.04 0.03 0.03 0.04 0.04 0.05 0.05
0.02 0.01 0.01 0.01 0.03 0.04 0.04 0.04 0.05 0.05 0.05 0.06 0.09 0.10 0.06 0.03 0.03 0.02 0.02 0.03 0.07 0.05 0.05 0.05 0.05 0.07 0.09 0.10 0.09 0.09 0.08 0.06 0.04 0.03 0.03 0.03 0.03 0.02 0.01 0.01 0.01 0.01 0.01 0.02
0.04 0.02 0.01 0.02 0.03 0.04 0.06 0.06 0.05 0.04 0.04 0.05 0.05 0.06 0.07 0.04 0.03 0.02 0.04 0.05 0.03 0.05 0.07 0.06 0.06 0.06 0.06 0.06 0.06 0.05 0.04 0.03 0.02 0.02 0.03 0.03 0.03 0.02 0.01 0.01 0.01 0.01 0.01 0.01
0.05 0.05 0.04 0.03 0.05 0.07 0.10 0.09 0.06 0.05 0.04 0.04 0.05 0.05 0.04 0.04 0.03 0.02 0.03 0.07 0.03 0.03 0.04 0.04 0.04 0.04 0.04 0.05 0.05 0.03 0.02 0.02 0.02 0.03 0.03 0.03 0.02 0.03 0.02 0.02 0.01 0.01 0.01 0.01
0.05 0.08 0.07 0.06 0.07 0.07 0.10 0.08 0.05 0.05 0.05 0.04 0.04 0.04 0.04 0.03 0.02 0.02 0.04 0.07 0.05 0.03 0.02 0.02 0.03 0.04 0.05 0.04 0.04 0.03 0.02 0.03 0.03 0.02 0.02 0.02 0.02 0.02 0.02 0.02 0.01 0.01 0.01 0.01
MSLP
1005.62 1006.60 1007.31 1007.73 1007.93 1007.98 1008.02 1008.12 1008.37 1008.77 1009.27 1009.82 1010.33 1010.73 1010.98 1011.09 1011.07 1011.01 1010.96 1010.97 1011.08 1011.27 1011.53 1011.81 1012.06 1012.26 1012.41 1012.52 1012.64 1012.80 1013.05 1013.40 1013.83 1014.31 1014.78 1015.19 1015.50 1015.69 1015.76 1015.76 1015.74 1015.75 1015.83 1016.01
1006.40 1007.15 1007.60 1007.79 1007.82 1007.79 1007.82 1008.01 1008.39 1008.93 1009.56 1010.18 1010.70 1011.05 1011.20 1011.16 1011.02 1010.85 1010.74 1010.74 1010.88 1011.14 1011.48 1011.82 1012.11 1012.32 1012.43 1012.49 1012.54 1012.66 1012.88 1013.24 1013.71 1014.25 1014.80 1015.27 1015.63 1015.83 1015.88 1015.83 1015.73 1015.66 1015.68 1015.82
1006.91 1007.39 1007.58 1007.57 1007.47 1007.42 1007.52 1007.86 1008.42 1009.15 1009.93 1010.63 1011.14 1011.41 1011.41 1011.20 1010.88 1010.56 1010.36 1010.33 1010.50 1010.83 1011.26 1011.69 1012.04 1012.28 1012.39 1012.41 1012.41 1012.47 1012.67 1013.02 1013.51 1014.10 1014.71 1015.26 1015.67 1015.89 1015.94 1015.86 1015.72 1015.60 1015.57 1015.68
1007.15 1007.36 1007.32 1007.15 1007.00 1006.99 1007.25 1007.80 1008.60 1009.53 1010.46 1011.22 1011.70 1011.84 1011.65 1011.20 1010.65 1010.14 1009.80 1009.70 1009.88 1010.27 1010.80 1011.33 1011.78 1012.08 1012.22 1012.23 1012.21 1012.23 1012.39 1012.73 1013.23 1013.86 1014.52 1015.12 1015.59 1015.86 1015.94 1015.87 1015.72 1015.58 1015.52 1015.60
1007.18 1007.14 1006.92 1006.67 1006.53 1006.65 1007.12 1007.92 1008.98 1010.13 1011.19 1011.99 1012.38 1012.34 1011.89 1011.16 1010.32 1009.57 1009.05 1008.86 1009.01 1009.45 1010.07 1010.72 1011.28 1011.67 1011.88 1011.93 1011.90 1011.91 1012.05 1012.36 1012.86 1013.50 1014.19 1014.85 1015.37 1015.70 1015.83 1015.80 1015.67 1015.54 1015.48 1015.56
1007.07 1006.84 1006.51 1006.24 1006.19 1006.49 1007.20 1008.28 1009.58 1010.92 1012.08 1012.85 1013.12 1012.85 1012.11 1011.05 1009.89 1008.86 1008.13 1007.81 1007.92 1008.39 1009.09 1009.86 1010.55 1011.06 1011.36 1011.47 1011.48 1011.49 1011.61 1011.91 1012.39 1013.03 1013.74 1014.42 1015.00 1015.39 1015.59 1015.61 1015.54 1015.44 1015.40 1015.48
1006.92 1006.56 1006.18 1005.95 1006.04 1006.55 1007.50 1008.82 1010.34 1011.81 1012.99 1013.70 1013.79 1013.27 1012.22 1010.83 1009.35 1008.04 1007.10 1006.63 1006.68 1007.15 1007.92 1008.80 1009.62 1010.26 1010.67 1010.87 1010.93 1010.97 1011.09 1011.36 1011.82 1012.44 1013.15 1013.86 1014.47 1014.92 1015.18 1015.28 1015.27 1015.22 1015.22 1015.30
1006.81 1006.38 1006.01 1005.87 1006.10 1006.80 1007.95 1009.45 1011.09 1012.62 1013.77 1014.36 1014.26 1013.48 1012.14 1010.45 1008.69 1007.13 1005.99 1005.40 1005.38 1005.84 1006.66 1007.62 1008.55 1009.31 1009.84 1010.13 1010.27 1010.34 1010.47 1010.73 1011.17 1011.76 1012.45 1013.16 1013.79 1014.29 1014.61 1014.78 1014.84 1014.85 1014.89 1015.00
1006.79 1006.35 1006.02 1005.97 1006.33 1007.17 1008.44 1010.02 1011.69 1013.18 1014.24 1014.67 1014.37 1013.37 1011.80 1009.89 1007.93 1006.19 1004.91 1004.21 1004.13 1004.57 1005.40 1006.42 1007.42 1008.27 1008.89 1009.28 1009.49 1009.62 1009.77 1010.03 1010.45 1011.01 1011.67 1012.36 1013.00 1013.52 1013.89 1014.12 1014.25 1014.32 1014.40 1014.54
1006.90 1006.48 1006.21 1006.23 1006.67 1007.56 1008.85 1010.40 1011.99 1013.35 1014.26 1014.52 1014.05 1012.89 1011.18 1009.15 1007.09 1005.28 1003.93 1003.17 1003.03 1003.44 1004.25 1005.26 1006.29 1007.19 1007.88 1008.34 1008.62 1008.81 1009.00 1009.27 1009.68 1010.21 1010.85 1011.51 1012.14 1012.68 1013.08 1013.36 1013.54 1013.67 1013.80 1013.97
1007.13 1006.76 1006.54 1006.60 1007.04 1007.89 1009.09 1010.49 1011.90 1013.06 1013.77 1013.86 1013.27 1012.03 1010.29 1008.27 1006.24 1004.46 1003.12 1002.35 1002.17 1002.52 1003.26 1004.22 1005.21 1006.10 1006.81 1007.32 1007.66 1007.90 1008.14 1008.45 1008.87 1009.39 1010.00 1010.65 1011.26 1011.80 1012.22 1012.54 1012.77 1012.95 1013.13 1013.33
1007.46 1007.15 1006.97 1007.03 1007.42 1008.13 1009.14 1010.30 1011.44 1012.34 1012.83 1012.77 1012.11 1010.89 1009.23 1007.34 1005.44 1003.78 1002.52 1001.77 1001.56 1001.82 1002.45 1003.29 1004.18 1005.00 1005.68 1006.20 1006.59 1006.91 1007.21 1007.57 1008.02 1008.56 1009.17 1009.80 1010.40 1010.94 1011.37 1011.72 1011.99 1012.22 1012.44 1012.69
1007.88 1007.64 1007.49 1007.51 1007.77 1008.29 1009.03 1009.88 1010.70 1011.32 1011.59 1011.41 1010.73 1009.59 1008.10 1006.41 1004.74 1003.26 1002.13 1001.42 1001.17 1001.32 1001.78 1002.44 1003.17 1003.87 1004.49 1005.00 1005.42 1005.80 1006.19 1006.62 1007.13 1007.71 1008.34 1008.97 1009.57 1010.11 1010.56 1010.93 1011.24 1011.51 1011.78 1012.08
1008.38 1008.20 1008.06 1008.02 1008.13 1008.42 1008.85 1009.36 1009.83 1010.16 1010.22 1009.93 1009.27 1008.27 1006.99 1005.57 1004.16 1002.90 1001.90 1001.24 1000.92 1000.93 1001.19 1001.63 1002.15 1002.69 1003.21 1003.68 1004.13 1004.58 1005.06 1005.60 1006.20 1006.84 1007.51 1008.16 1008.77 1009.31 1009.78 1010.17 1010.52 1010.84 1011.16 1011.50
1008.94 1008.82 1008.68 1008.56 1008.51 1008.55 1008.67 1008.84 1008.98 1009.02 1008.88 1008.52 1007.90 1007.04 1006.00 1004.85 1003.71 1002.66 1001.78 1001.13 1000.73 1000.57 1000.61 1000.80 1001.09 1001.45 1001.84 1002.27 1002.74 1003.26 1003.85 1004.50 1005.19 1005.92 1006.64 1007.33 1007.96 1008.52 1009.00 1009.43 1009.81 1010.18 1010.55 1010.94
1009.53 1009.46 1009.32 1009.12 1008.92 1008.73 1008.56 1008.41 1008.25 1008.03 1007.72 1007.29 1006.71 1005.99 1005.16 1004.26 1003.34 1002.47 1001.68 1001.03 1000.53 1000.18 999.98 999.92 999.98 1000.15 1000.42 1000.80 1001.29 1001.88 1002.57 1003.33 1004.13 1004.94 1005.72 1006.46 1007.12 1007.70 1008.21 1008.67 1009.09 1009.50 1009.92 1010.36
1010.13 1010.09 1009.93 1009.67 1009.33 1008.94 1008.53 1008.11 1007.68 1007.25 1006.79 1006.30 1005.75 1005.15 1004.48 1003.77 1003.03 1002.28 1001.55 1000.87 1000.25 999.72 999.30 999.00 998.85 998.85 999.01 999.35 999.85 1000.50 1001.27 1002.13 1003.02 1003.91 1004.76 1005.53 1006.23 1006.84 1007.37 1007.86 1008.32 1008.78 1009.25 1009.73
1010.68 1010.65 1010.47 1010.14 1009.69 1009.15 1008.54 1007.91 1007.28 1006.68 1006.10 1005.55 1005.02 1004.49 1003.94 1003.36 1002.74 1002.07 1001.36 1000.64 999.91 999.22 998.61 998.12 997.79 997.65 997.72 998.01 998.52 999.21 1000.04 1000.97 1001.93 1002.87 1003.76 1004.57 1005.29 1005.92 1006.49 1007.01 1007.51 1008.01 1008.51 1009.03
1011.15 1011.09 1010.86 1010.47 1009.93 1009.26 1008.52 1007.74 1006.97 1006.25 1005.58 1004.99 1004.47 1003.98 1003.50 1003.00 1002.45 1001.83 1001.14 1000.37 999.56 998.76 998.01 997.37 996.91 996.67 996.67 996.92 997.41 998.11 998.97 999.92 1000.91 1001.87 1002.78 1003.60 1004.34 1004.99 1005.58 1006.13 1006.66 1007.20 1007.74 1008.27
1011.47 1011.34 1011.05 1010.60 1009.98 1009.24 1008.40 1007.54 1006.68 1005.89 1005.18 1004.56 1004.04 1003.58 1003.15 1002.71 1002.20 1001.62 1000.93 1000.14 999.30 998.43 997.60 996.88 996.34 996.02 995.96 996.17 996.63 997.30 998.14 999.07 1000.04 1000.98 1001.88 1002.69 1003.42 1004.08 1004.69 1005.27 1005.83 1006.40 1006.96 1007.51
1011.62 1011.39 1011.02 1010.48 1009.81 1009.01 1008.14 1007.24 1006.36 1005.54 1004.83 1004.21 1003.71 1003.28 1002.88 1002.48 1002.02 1001.47 1000.81 1000.04 999.20 998.32 997.48 996.73 996.15 995.79 995.68 995.84 996.23 996.84 997.61 998.47 999.37 1000.26 1001.11 1001.89 1002.61 1003.27 1003.89 1004.49 1005.07 1005.65 1006.22 1006.78
1011.59 1011.23 1010.75 1010.14 1009.41 1008.60 1007.72 1006.83 1005.97 1005.19 1004.50 1003.92 1003.45 1003.06 1002.70 1002.35 1001.94 1001.44 1000.83 1000.12 999.33 998.50 997.69 996.96 996.38 996.00 995.84 995.92 996.23 996.74 997.39 998.14 998.94 999.74 1000.52 1001.25 1001.94 1002.60 1003.22 1003.83 1004.43 1005.02 1005.59 1006.13
1011.36 1010.86 1010.27 1009.59 1008.83 1008.01 1007.17 1006.33 1005.53 1004.82 1004.19 1003.68 1003.26 1002.91 1002.61 1002.31 1001.96 1001.53 1001.01 1000.39 999.68 998.94 998.20 997.52 996.96 996.57 996.37 996.38 996.58 996.95 997.47 998.08 998.75 999.43 1000.12 1000.79 1001.45 1002.08 1002.71 1003.32 1003.92 1004.51 1005.07 1005.59
1010.96 1010.31 1009.62 1008.88 1008.10 1007.31 1006.53 1005.77 1005.07 1004.44 1003.91 1003.47 1003.12 1002.83 1002.59 1002.34 1002.06 1001.72 1001.29 1000.78 1000.19 999.55 998.91 998.31 997.79 997.40 997.16 997.08 997.17 997.40 997.76 998.22 998.74 999.31 999.90 1000.51 1001.12 1001.73 1002.35 1002.96 1003.56 1004.13 1004.66 1005.16
1010.38 1009.61 1008.83 1008.05 1007.28 1006.54 1005.83 1005.18 1004.59 1004.07 1003.63 1003.27 1002.99 1002.76 1002.57 1002.38 1002.17 1001.90 1001.58 1001.18 1000.71 1000.20 999.66 999.15 998.68 998.30 998.03 997.88 997.86 997.96 998.18 998.48 998.87 999.32 999.82 1000.36 1000.93 1001.52 1002.12 1002.71 1003.30 1003.85 1004.36 1004.82
1009.61 1008.74 1007.91 1007.12 1006.39 1005.72 1005.11 1004.57 1004.09 1003.67 1003.32 1003.03 1002.80 1002.62 1002.46 1002.31 1002.15 1001.96 1001.72 1001.43 1001.09 1000.70 1000.28 999.86 999.46 999.10 998.82 998.61 998.51 998.50 998.59 998.77 999.05 999.40 999.82 1000.30 1000.82 1001.38 1001.96 1002.54 1003.10 1003.62 1004.10 1004.53
Thickness
5839 5820 5809 5818 5827 5827 5823 5814 5808 5817 5833 5822 5812 5809 5812 5816 5812 5807 5805 5803 5800 5799 5801 5801 5800 5798 5795 5792 5789 5786 5783 5782 5780 5777 5774 5771 5770 5771 5771 5771 5770 5769 5767 5766
5813 5810 5830 5839 5839 5833 5826 5812 5810 5819 5831 5821 5808 5806 5812 5817 5815 5814 5810 5806 5803 5799 5799 5800 5799 5798 5795 5792 5790 5788 5786 5784 5782 5780 5777 5775 5773 5771 5771 5771 5770 5769 5768 5766
5804 5821 5841 5837 5830 5825 5821 5815 5814 5813 5821 5821 5806 5793 5800 5811 5817 5816 5815 5813 5810 5806 5801 5800 5799 5798 5796 5793 5792 5791 5788 5786 5784 5783 5780 5777 5774 5771 5769 5768 5768 5769 5768 5767
5811 5831 5835 5828 5826 5826 5811 5832 5830 5822 5803 5788 5796 5767 5789 5802 5806 5811 5813 5813 5810 5811 5808 5804 5802 5799 5798 5797 5796 5793 5791 5788 5785 5783 5780 5775 5770 5766 5767 5768 5768 5769 5769 5768
5806 5827 5827 5822 5831 5836 5827 5841 5832 5823 5804 5787 5788 5771 5780 5798 5795 5807 5815 5817 5816 5814 5812 5809 5807 5805 5803 5801 5798 5795 5792 5789 5787 5785 5781 5776 5772 5769 5769 5769 5768 5768 5768 5767
5815 5834 5835 5834 5844 5846 5842 5828 5816 5802 5786 5766 5782 5772 5773 5792 5805 5812 5818 5822 5821 5820 5818 5814 5812 5808 5804 5802 5799 5796 5792 5789 5788 5785 5782 5778 5773 5770 5768 5767 5766 5766 5766 5766
5799 5816 5834 5842 5828 5832 5826 5793 5764 5759 5749 5756 5784 5780 5785 5816 5828 5829 5827 5827 5826 5824 5821 5815 5811 5807 5804 5802 5799 5796 5792 5789 5788 5785 5782 5779 5776 5772 5769 5767 5766 5764 5763 5763
5772 5779 5816 5832 5825 5814 5812 5793 5761 5747 5745 5757 5778 5777 5801 5832 5838 5838 5836 5834 5831 5825 5823 5818 5815 5811 5808 5805 5802 5797 5793 5790 5788 5785 5782 5780 5777 5774 5771 5769 5767 5765 5764 5763
5768 5776 5818 5833 5839 5827 5808 5794 5793 5767 5761 5755 5764 5785 5808 5829 5829 5831 5830 5829 5827 5827 5824 5820 5817 5814 5810 5807 5804 5801 5796 5791 5788 5785 5782 5779 5777 5774 5772 5769 5768 5766 5764 5763
5784 5776 5802 5823 5830 5827 5820 5807 5778 5761 5745 5741 5758 5770 5782 5805 5815 5822 5824 5824 5826 5827 5825 5822 5819 5817 5814 5810 5807 5803 5798 5793 5789 5786 5783 5780 5776 5775 5773 5770 5767 5765 5764 5763
5788 5771 5783 5799 5798 5798 5805 5799 5778 5758 5756 5741 5740 5763 5811 5813 5820 5822 5825 5827 5827 5827 5825 5823 5821 5819 5816 5811 5806 5802 5798 5794 5789 5785 5782 5780 5776 5774 5772 5769 5767 5765 5763 5761
5783 5763 5758 5780 5804 5817 5809 5798 5779 5759 5753 5750 5746 5765 5825 5824 5826 5827 5826 5828 5828 5828 5827 5824 5821 5817 5813 5809 5806 5802 5797 5792 5790 5786 5782 5778 5775 5773 5769 5767 5765 5763 5761 5759
5778 5755 5741 5752 5770 5792 5795 5797 5786 5770 5755 5746 5744 5768 5818 5821 5822 5825 5826 5825 5825 5824 5822 5820 5817 5815 5812 5808 5805 5801 5797 5793 5790 5786 5781 5777 5773 5770 5767 5765 5763 5760 5758 5755
5782 5751 5742 5738 5750 5771 5778 5788 5789 5771 5751 5749 5758 5774 5798 5808 5811 5816 5820 5821 5821 5820 5818 5814 5811 5811 5810 5808 5804 5800 5796 5793 5789 5785 5780 5775 5771 5769 5766 5763 5760 5757 5754 5751
5767 5747 5754 5761 5773 5780 5780 5784 5787 5778 5770 5762 5769 5778 5793 5804 5810 5814 5816 5815 5814 5811 5811 5810 5808 5806 5805 5804 5801 5798 5794 5791 5788 5782 5778 5774 5771 5768 5764 5760 5757 5754 5751 5748
5750 5744 5750 5755 5769 5773 5772 5779 5783 5783 5781 5777 5779 5781 5800 5806 5808 5808 5809 5810 5807 5806 5807 5807 5806 5803 5801 5799 5797 5795 5792 5789 5786 5780 5775 5772 5768 5764 5760 5756 5753 5749 5746 5743
5735 5734 5728 5729 5752 5758 5746 5766 5775 5776 5781 5778 5770 5780 5796 5796 5798 5800 5803 5805 5804 5804 5804 5803 5802 5801 5800 5797 5796 5792 5789 5786 5782 5777 5772 5768 5765 5760 5756 5753 5749 5745 5741 5738
5727 5720 5713 5716 5731 5718 5742 5773 5779 5775 5778 5783 5784 5789 5794 5795 5797 5800 5803 5802 5800 5801 5800 5800 5799 5797 5795 5794 5792 5789 5785 5781 5776 5772 5768 5764 5760 5755 5752 5748 5744 5740 5736 5732
5729 5717 5705 5700 5704 5717 5745 5766 5770 5764 5761 5779 5779 5783 5788 5791 5789 5787 5796 5799 5798 5798 5797 5795 5795 5794 5791 5788 5786 5782 5777 5773 5769 5765 5762 5759 5756 5751 5747 5743 5739 5735 5731 5726
5721 5715 5701 5695 5698 5699 5731 5763 5774 5764 5745 5771 5776 5775 5778 5780 5764 5769 5786 5791 5790 5791 5791 5790 5789 5788 5785 5782 5780 5774 5769 5766 5762 5760 5757 5754 5750 5746 5741 5738 5733 5729 5725 5720
5697 5696 5692 5689 5693 5707 5739 5759 5763 5734 5738 5765 5771 5772 5773 5771 5772 5777 5782 5783 5784 5784 5784 5784 5781 5777 5775 5774 5771 5765 5761 5757 5756 5753 5750 5746 5743 5739 5735 5732 5728 5723 5719 5714
5682 5680 5682 5683 5684 5697 5739 5746 5739 5741 5756 5761 5765 5768 5769 5769 5772 5773 5773 5773 5773 5773 5774 5774 5771 5767 5766 5765 5761 5755 5751 5751 5748 5745 5741 5737 5734 5732 5729 5724 5720 5716 5711 5706
5680 5684 5684 5687 5693 5715 5730 5736 5743 5747 5748 5754 5758 5761 5764 5762 5761 5762 5761 5761 5762 5763 5762 5763 5761 5758 5756 5755 5753 5747 5743 5742 5739 5736 5731 5728 5726 5723 5720 5717 5712 5708 5704 5700
5678 5688 5686 5687 5700 5712 5720 5730 5737 5742 5744 5749 5752 5755 5757 5754 5752 5751 5751 5750 5751 5751 5750 5750 5748 5746 5745 5745 5743 5740 5737 5735 5731 5726 5722 5719 5716 5713 5711 5709 5705 5701 5697 5693
5669 5675 5675 5679 5692 5701 5711 5719 5726 5732 5738 5741 5744 5747 5748 5745 5744 5744 5742 5742 5742 5741 5740 5739 5738 5736 5735 5736 5734 5733 5730 5728 5723 5718 5714 5711 5707 5705 5701 5698 5695 5693 5690 5689
5665 5667 5667 5670 5683 5686 5695 5710 5719 5722 5725 5729 5731 5733 5736 5737 5736 5735 5733 5733 5732 5730 5730 5729 5728 5726 5726 5726 5725 5723 5722 5719 5715 5710 5706 5703 5699 5696 5693 5689 5684 5683 5682 5681